• In Hungary
  • List of Countries
  • For 7 days
  • Water Temperature
  • Satellite Maps
  • Weather Map
  • News
  • Weather Widgets
  • user-avatar
    Login

    Hourly Weather Karmana

    Today, 19 October, Friday

    Time Temperature Precipitation Wind Pressure Humidity
    00:00 +8°C° 0 mm 1 mps 734 mmHg 27%
    01:00 +8°C° 0 mm 1 mps 734 mmHg 27%
    02:00 +6°C° 0 mm 0 mps 734 mmHg 28%
    03:00 +6°C° 0 mm 0 mps 734 mmHg 29%
    04:00 +5°C° 0 mm 0 mps 734 mmHg 29%
    05:00 +6°C° 0 mm 0 mps 734 mmHg 28%
    06:00 +7°C° 0 mm 0 mps 734 mmHg 27%
    07:00 +8°C° 0 mm 0 mps 735 mmHg 26%
    08:00 +10°C° 0 mm 0 mps 735 mmHg 23%
    09:00 +12°C° 0 mm 1 mps 735 mmHg 20%
    10:00 +14°C° 0 mm 1 mps 735 mmHg 17%
    11:00 +15°C° 0 mm 1 mps 735 mmHg 16%
    12:00 +16°C° 0 mm 1 mps 735 mmHg 16%
    13:00 +18°C° 0 mm 1 mps 735 mmHg 15%
    14:00 +17°C° 0 mm 2 mps 735 mmHg 16%
    15:00 +17°C° 0 mm 2 mps 735 mmHg 17%
    16:00 +17°C° 0 mm 2 mps 735 mmHg 18%
    17:00 +16°C° 0 mm 2 mps 735 mmHg 21%
    18:00 +15°C° 0 mm 2 mps 735 mmHg 23%
    19:00 +13°C° 0 mm 3 mps 735 mmHg 25%
    20:00 +12°C° 0 mm 3 mps 735 mmHg 27%
    21:00 +12°C° 0 mm 3 mps 735 mmHg 28%
    22:00 +12°C° 0 mm 2 mps 735 mmHg 29%
    23:00 +12°C° 0 mm 2 mps 735 mmHg 29%

    Tomorrow, 20 October, Saturday

    Time Temperature Precipitation Wind Pressure Humidity
    00:00 +10°C° 0 mm 2 mps 735 mmHg 30%
    01:00 +10°C° 0 mm 3 mps 735 mmHg 30%
    02:00 +10°C° 0 mm 2 mps 735 mmHg 29%
    03:00 +10°C° 0 mm 2 mps 735 mmHg 29%
    04:00 +9°C° 0 mm 2 mps 735 mmHg 28%
    05:00 +10°C° 0 mm 2 mps 735 mmHg 28%
    06:00 +10°C° 0 mm 2 mps 735 mmHg 27%
    07:00 +12°C° 0 mm 2 mps 735 mmHg 26%
    08:00 +14°C° 0 mm 2 mps 735 mmHg 24%
    09:00 +16°C° 0 mm 2 mps 735 mmHg 21%
    10:00 +18°C° 0 mm 3 mps 735 mmHg 19%
    11:00 +19°C° 0 mm 2 mps 735 mmHg 18%
    12:00 +20°C° 0 mm 2 mps 735 mmHg 18%
    13:00 +21°C° 0 mm 1 mps 734 mmHg 17%
    14:00 +20°C° 0 mm 2 mps 734 mmHg 18%
    15:00 +20°C° 0 mm 2 mps 734 mmHg 18%
    16:00 +20°C° 0 mm 2 mps 734 mmHg 19%
    17:00 +19°C° 0 mm 2 mps 734 mmHg 21%
    18:00 +17°C° 0 mm 2 mps 734 mmHg 24%
    19:00 +16°C° 0 mm 3 mps 734 mmHg 26%
    20:00 +14°C° 0 mm 3 mps 734 mmHg 27%
    21:00 +14°C° 0 mm 3 mps 734 mmHg 28%
    22:00 +13°C° 0 mm 3 mps 734 mmHg 29%
    23:00 +13°C° 0 mm 3 mps 733 mmHg 30%

    Day after tomorrow, 21 October, Sunday

    Time Temperature Precipitation Wind Pressure Humidity
    00:00 +13°C° 0 mm 3 mps 733 mmHg 30%
    01:00 +12°C° 0 mm 3 mps 733 mmHg 31%
    02:00 +12°C° 0 mm 3 mps 733 mmHg 31%
    03:00 +12°C° 0 mm 3 mps 733 mmHg 32%
    04:00 +12°C° 0 mm 3 mps 733 mmHg 32%
    05:00 +12°C° 0 mm 3 mps 733 mmHg 32%
    06:00 +12°C° 0 mm 3 mps 733 mmHg 31%
    07:00 +14°C° 0 mm 2 mps 733 mmHg 30%
    08:00 +16°C° 0 mm 2 mps 733 mmHg 27%
    09:00 +18°C° 0 mm 2 mps 733 mmHg 23%
    10:00 +21°C° 0 mm 1 mps 733 mmHg 20%
    11:00 +22°C° 0 mm 1 mps 733 mmHg 19%
    12:00 +23°C° 0 mm 1 mps 733 mmHg 18%
    13:00 +24°C° 0 mm 1 mps 733 mmHg 17%
    14:00 +24°C° 0 mm 1 mps 732 mmHg 17%
    15:00 +24°C° 0 mm 1 mps 732 mmHg 18%
    16:00 +22°C° 0 mm 0 mps 732 mmHg 18%
    17:00 +22°C° 0 mm 1 mps 732 mmHg 20%
    18:00 +20°C° 0 mm 1 mps 732 mmHg 22%
    19:00 +18°C° 0 mm 1 mps 732 mmHg 25%
    20:00 +18°C° 0 mm 1 mps 732 mmHg 25%
    21:00 +17°C° 0 mm 2 mps 732 mmHg 26%
    22:00 +16°C° 0 mm 2 mps 732 mmHg 26%
    23:00 +16°C° 0 mm 2 mps 732 mmHg 27%

    22 October, Monday

    Time Temperature Precipitation Wind Pressure Humidity
    00:00 +15°C° 0 mm 2 mps 731 mmHg 28%
    01:00 +15°C° 0 mm 2 mps 731 mmHg 28%
    02:00 +15°C° 0 mm 2 mps 731 mmHg 29%
    03:00 +14°C° 0 mm 2 mps 731 mmHg 29%
    04:00 +14°C° 0 mm 2 mps 731 mmHg 29%
    05:00 +15°C° 0 mm 2 mps 731 mmHg 29%
    06:00 +15°C° 0 mm 2 mps 731 mmHg 28%
    07:00 +16°C° 0 mm 2 mps 731 mmHg 27%
    08:00 +18°C° 0 mm 2 mps 731 mmHg 24%
    09:00 +21°C° 0 mm 1 mps 732 mmHg 20%
    10:00 +23°C° 0 mm 1 mps 732 mmHg 17%
    11:00 +24°C° 0 mm 1 mps 731 mmHg 16%
    12:00 +25°C° 0 mm 1 mps 731 mmHg 15%
    13:00 +25°C° 0 mm 1 mps 731 mmHg 14%
    14:00 +25°C° 0 mm 1 mps 731 mmHg 15%
    15:00 +25°C° 0 mm 1 mps 731 mmHg 15%
    16:00 +25°C° 0 mm 1 mps 730 mmHg 15%
    17:00 +23°C° 0 mm 2 mps 730 mmHg 17%
    18:00 +21°C° 0 mm 2 mps 730 mmHg 19%
    19:00 +19°C° 0 mm 3 mps 731 mmHg 21%
    20:00 +19°C° 0 mm 2 mps 730 mmHg 22%
    21:00 +18°C° 0 mm 2 mps 730 mmHg 22%
    22:00 +18°C° 0 mm 2 mps 730 mmHg 23%
    23:00 +17°C° 0 mm 2 mps 730 mmHg 24%

    23 October, Tuesday

    Time Temperature Precipitation Wind Pressure Humidity
    00:00 +17°C° 0 mm 2 mps 730 mmHg 24%
    01:00 +16°C° 0 mm 2 mps 730 mmHg 24%
    02:00 +16°C° 0 mm 2 mps 730 mmHg 25%
    03:00 +15°C° 0 mm 2 mps 730 mmHg 25%
    04:00 +15°C° 0 mm 2 mps 730 mmHg 25%
    05:00 +15°C° 0 mm 2 mps 731 mmHg 25%
    06:00 +16°C° 0 mm 2 mps 731 mmHg 24%
    07:00 +16°C° 0 mm 2 mps 731 mmHg 24%
    08:00 +18°C° 0 mm 2 mps 731 mmHg 21%
    09:00 +20°C° 0 mm 2 mps 732 mmHg 18%
    10:00 +23°C° 0 mm 2 mps 732 mmHg 16%
    11:00 +24°C° 0 mm 2 mps 732 mmHg 15%
    12:00 +25°C° 0 mm 1 mps 731 mmHg 15%
    13:00 +25°C° 0 mm 1 mps 731 mmHg 14%
    14:00 +25°C° 0 mm 2 mps 731 mmHg 15%
    15:00 +25°C° 0 mm 2 mps 731 mmHg 16%
    16:00 +24°C° 0 mm 3 mps 731 mmHg 16%
    17:00 +22°C° 0 mm 3 mps 731 mmHg 18%
    18:00 +21°C° 0 mm 3 mps 731 mmHg 20%
    19:00 +19°C° 0 mm 4 mps 731 mmHg 22%
    20:00 +19°C° 0 mm 4 mps 731 mmHg 24%
    21:00 +18°C° 0 mm 4 mps 731 mmHg 25%
    22:00 +18°C° 0 mm 4 mps 731 mmHg 26%
    23:00 +18°C° 0 mm 4 mps 731 mmHg 27%

    24 October, Wednesday

    Time Temperature Precipitation Wind Pressure Humidity
    00:00 +17°C° 0 mm 4 mps 731 mmHg 28%
    01:00 +17°C° 0 mm 4 mps 730 mmHg 28%
    02:00 +17°C° 0 mm 3 mps 730 mmHg 28%
    03:00 +16°C° 0 mm 3 mps 730 mmHg 29%
    04:00 +16°C° 0 mm 3 mps 730 mmHg 29%
    05:00 +16°C° 0 mm 3 mps 730 mmHg 29%
    06:00 +17°C° 0 mm 3 mps 730 mmHg 28%
    07:00 +17°C° 0 mm 3 mps 731 mmHg 28%
    08:00 +19°C° 0 mm 3 mps 731 mmHg 25%
    09:00 +20°C° 0 mm 2 mps 731 mmHg 21%
    10:00 +23°C° 0 mm 2 mps 731 mmHg 18%
    11:00 +24°C° 0 mm 2 mps 730 mmHg 17%
    12:00 +25°C° 0 mm 1 mps 730 mmHg 15%
    13:00 +25°C° 0 mm 1 mps 730 mmHg 14%
    14:00 +25°C° 0 mm 1 mps 730 mmHg 14%
    15:00 +25°C° 0 mm 1 mps 729 mmHg 15%
    16:00 +25°C° 0 mm 1 mps 729 mmHg 15%
    17:00 +23°C° 0 mm 1 mps 729 mmHg 17%
    18:00 +21°C° 0 mm 2 mps 729 mmHg 19%
    19:00 +19°C° 0 mm 2 mps 729 mmHg 21%
    20:00 +19°C° 0 mm 2 mps 729 mmHg 21%
    21:00 +19°C° 0 mm 2 mps 729 mmHg 22%
    22:00 +18°C° 0 mm 2 mps 729 mmHg 22%
    23:00 +18°C° 0 mm 2 mps 729 mmHg 22%
    Show more